Regional Weather Roundup
Issued by NWS

Home | Current Version | Previous Version | Graphics & Text | Print | Product List | Glossary On
Versions: 1 2 3 4 5 6 7 8 9 10 11 12 13 14 15 16 17 18 19 20 21 22 23 24 25 26 27 28
000
ASUS45 KCYS 300110
RWRWY

WYOMING REGIONAL WEATHER ROUNDUP
NATIONAL WEATHER SERVICE CHEYENNE WY
700 PM MDT WED MAR 29 2017

NOTE:  "FAIR" INDICATES FEW OR NO CLOUDS BELOW 12,000 FEET
WITH NO SIGNIFICANT WEATHER AND/OR OBSTRUCTIONS TO VISIBILITY.

WYZ001-300200-
YELLOWSTONE NATIONAL PARK

CITY           SKY/WX    TMP DP  RH WIND       PRES   REMARKS
LK YELLOWSTONE   N/A     33  29  85 VRB3      30.09F
W YELLOWSTONE  NOT AVBL

$$
WYZ002>013-054>058-071-098>099-300200-
NORTHERN WYOMING

CITY           SKY/WX    TMP DP  RH WIND       PRES   REMARKS
JACKSON        MOCLDY    45  30  57 S8        30.06F
CODY           MOCLDY    54  28  36 W24G35    29.91F
GREYBULL       FAIR      58  29  33 SE8       29.87F
WORLAND        FAIR      57  37  47 E3        29.88F
SHERIDAN       FAIR      57  30  35 SE6       29.85F
BUFFALO        FAIR      56  27  32 E7        29.89F
GILLETTE       FAIR      54  30  40 SE3       29.90F
HULETT         FAIR      54  28  37 CALM      29.91F
NEWCASTLE      FAIR      54  27  35 W9        29.91F

$$
WYZ014>020-022>026-101>103-300200-
CENTRAL WYOMING

CITY           SKY/WX    TMP DP  RH WIND       PRES   REMARKS
BIG PINEY      FAIR      45  29  53 N14       30.07S
PINEDALE       FAIR      43  25  49 NW10      30.08S
DUBOIS         CLOUDY    43  27  52 NW17G24   30.00S
LANDER         FAIR      52  31  44 SE7       29.90F
RIVERTON       FAIR      56  29  35 SW8       29.91F
CASPER         FAIR      54  28  36 W8        29.92F
DOUGLAS        FAIR      55  28  35 NW6       29.93F

$$
WYZ021-027>030-104>119-300200-
SOUTHERN WYOMING

CITY           SKY/WX    TMP DP  RH WIND       PRES   REMARKS
EVANSTON       MOCLDY    46  26  45 W16       30.12S
KEMMERER         N/A     43  30  61 NW8       30.10S
FORT BRIDGER   MOCLDY    49  28  44 W20       30.12S
ROCK SPRINGS   FAIR      49  27  42 W21       30.04S
DIXON            N/A     52  23  32 W8        30.07S
RAWLINS        FAIR      50  25  37 W17       30.01F
SARATOGA       FAIR      46  25  42 W8        30.04S
LARAMIE        FAIR      46  23  40 NW14      29.99S
CHEYENNE       FAIR      51  22  31 N9G25     29.97S
TORRINGTON     FAIR      56  32  40 NE12      29.91F
PINE BLUFFS    FAIR      50  30  46 N8        29.97S

$$




USA.gov is the U.S. government's official web portal to all federal, state and local government web resources and services.